La Porte, IN

6:13 AM CST on December 06, 2016 (GMT -0600)
La Porte Municipal

Weather History for KPPO - July, 2013

Change the Weather History Date:

Wednesday, July 24, 2013

  Actual Average (KVPZ) Record (KVPZ)
Temperature  
Mean Temperature 60 °F 72 °F  
Max Temperature 69 °F 82 °F 98 °F (2005)
Min Temperature 51 °F 62 °F 50 °F (2013)
Degree Days  
Heating Degree Days 5 0  
Month to date heating degree days 0  
Since 1 June heating degree days 41  
Since 1 July heating degree days 0  
Cooling Degree Days 0 7  
Month to date cooling degree days 191  
Year to date cooling degree days 402  
Since 1 June cooling degree days 355  
Growing Degree Days 10 (Base 50)    
Moisture  
Dew Point 49 °F    
Average Humidity 66    
Maximum Humidity 91    
Minimum Humidity 48    
Precipitation  
Precipitation 0.00 in 0.12 in 1.06 in (2010)
Month to date precipitation 3.44  
Year to date precipitation 20.33  
Sea Level Pressure  
Sea Level Pressure 30.03 in    
Wind  
Wind Speed 8 mph (NNE)    
Max Wind Speed 13 mph    
Max Gust Speed 17 mph    
Visibility 10 miles    
Events      
T = Trace of Precipitation, MM = Missing Value Source: NWS Daily Summary

Daily Weather History Graph

Daily Weather History Graph

Search for Another Location

Airport or City:

Trip Planner

Search our weather history database for the weather conditions in past years. The results will help you decide how hot, cold, wet, or windy it might be!

Date:

Astronomy

Jul. 24, 2013 Rise Set
Actual Time 5:34 AM CDT 8:12 PM CDT
Civil Twilight 5:01 AM CDT 8:44 PM CDT
Nautical Twilight 4:21 AM CDT 9:24 PM CDT
Astronomical Twilight 3:36 AM CDT 10:09 PM CDT
Moon 9:14 PM CDT (7/24) 7:56 AM CDT (7/24)
Length of Visible Light 15h 42m
Length of Day
14h 38m
Waning Gibbous, 94% of the Moon is Illuminated
Jul 24
Waning Gibbous
Jul 29
Last Quarter
Aug 6
New
Aug 14
First Quarter
Aug 20
Full

Hourly Weather History & Observations

Time (CDT) Temp. Dew Point Humidity Pressure Visibility Wind Dir Wind Speed Gust Speed Precip Events Conditions
12:15 AM 58.6 °F 50.5 °F 74% 29.98 in 10.0 mi NE 6.9 mph - N/A   Clear
12:35 AM 57.9 °F 50.4 °F 76% 29.98 in 10.0 mi NE 5.8 mph - N/A   Clear
12:55 AM 56.8 °F 49.5 °F 76% 29.98 in 10.0 mi NNE 8.1 mph - N/A   Clear
1:15 AM 56.1 °F 48.4 °F 75% 29.97 in 10.0 mi NNE 9.2 mph - N/A   Clear
1:35 AM 55.6 °F 47.7 °F 75% 29.97 in 10.0 mi NNE 8.1 mph - N/A   Clear
1:55 AM 55.4 °F 47.3 °F 74% 29.97 in 10.0 mi NNE 10.4 mph 17.3 mph N/A   Clear
2:15 AM 54.5 °F 47.3 °F 77% 29.97 in 10.0 mi NNE 9.2 mph - N/A   Clear
2:35 AM 54.0 °F 47.3 °F 78% 29.97 in 10.0 mi NNE 10.4 mph - N/A   Clear
2:55 AM 53.2 °F 47.1 °F 80% 29.98 in 10.0 mi NNE 8.1 mph - N/A   Clear
3:15 AM 52.7 °F 47.3 °F 82% 29.98 in 10.0 mi NNE 8.1 mph - N/A   Clear
3:35 AM 52.2 °F 47.3 °F 83% 29.98 in 10.0 mi NNE 8.1 mph - N/A   Clear
3:55 AM 52.0 °F 46.9 °F 83% 29.99 in 10.0 mi North 6.9 mph - N/A   Clear
4:15 AM 52.0 °F 46.9 °F 83% 29.98 in 10.0 mi NNE 9.2 mph - N/A   Clear
4:35 AM 52.0 °F 46.9 °F 83% 29.99 in 10.0 mi NNE 9.2 mph - N/A   Clear
4:55 AM 52.0 °F 46.8 °F 82% 30.00 in 10.0 mi NNE 8.1 mph - N/A   Clear
5:15 AM 51.6 °F 46.4 °F 82% 30.01 in 10.0 mi NNE 6.9 mph - N/A   Clear
5:35 AM 51.4 °F 46.6 °F 83% 30.01 in 10.0 mi NE 6.9 mph - N/A   Clear
5:55 AM 51.4 °F 46.4 °F 83% 30.02 in 10.0 mi NE 5.8 mph - N/A   Clear
6:15 AM 51.4 °F 46.8 °F 84% 30.03 in 10.0 mi NNE 5.8 mph - N/A   Clear
6:35 AM 52.7 °F 47.3 °F 82% 30.03 in 10.0 mi NNE 5.8 mph - N/A   Clear
6:55 AM 54.1 °F 47.1 °F 77% 30.03 in 10.0 mi NE 5.8 mph - N/A   Clear
7:15 AM 55.4 °F 47.1 °F 74% 30.04 in 10.0 mi NE 4.6 mph - N/A   Clear
7:35 AM 56.8 °F 46.9 °F 69% 30.05 in 10.0 mi NNE 6.9 mph - N/A   Clear
7:55 AM 57.7 °F 46.9 °F 67% 30.04 in 10.0 mi NE 8.1 mph - N/A   Clear
8:15 AM 58.6 °F 46.8 °F 65% 30.04 in 10.0 mi NE 6.9 mph - N/A   Clear
8:35 AM 59.5 °F 46.2 °F 61% 30.05 in 10.0 mi NNE 10.4 mph - N/A   Clear
8:55 AM 60.8 °F 46.9 °F 60% 30.06 in 10.0 mi NNE 10.4 mph - N/A   Clear
9:15 AM 61.3 °F 47.1 °F 60% 30.06 in 10.0 mi NNE 10.4 mph - N/A   Clear
9:35 AM 61.9 °F 46.6 °F 57% 30.06 in 10.0 mi NE 10.4 mph - N/A   Clear
9:55 AM 63.0 °F 46.6 °F 55% 30.07 in 10.0 mi NNE 11.5 mph - N/A   Clear
10:15 AM 63.5 °F 46.8 °F 54% 30.07 in 10.0 mi NNE 5.8 mph - N/A   Clear
10:35 AM 63.7 °F 46.2 °F 53% 30.06 in 10.0 mi NE 9.2 mph - N/A   Clear
10:55 AM 64.8 °F 47.3 °F 53% 30.05 in 10.0 mi ENE 9.2 mph - N/A   Clear
11:15 AM 65.8 °F 47.1 °F 51% 30.05 in 10.0 mi North 8.1 mph - N/A   Clear
11:35 AM 66.9 °F 46.9 °F 49% 30.06 in 10.0 mi NNE 9.2 mph - N/A   Clear
11:55 AM 67.3 °F 47.1 °F 48% 30.05 in 10.0 mi NE 9.2 mph - N/A   Clear
12:15 PM 67.3 °F 47.3 °F 49% 30.06 in 10.0 mi North 6.9 mph - N/A   Clear
12:35 PM 68.4 °F 49.6 °F 51% 30.05 in 10.0 mi North 10.4 mph - N/A   Clear
12:55 PM 68.0 °F 49.1 °F 51% 30.05 in 10.0 mi NNW 10.4 mph - N/A   Clear
1:15 PM 68.2 °F 48.7 °F 50% 30.05 in 10.0 mi NNW 10.4 mph - N/A   Clear
1:35 PM 68.2 °F 48.6 °F 49% 30.05 in 10.0 mi North 11.5 mph - N/A   Clear
1:55 PM 68.2 °F 48.7 °F 50% 30.04 in 10.0 mi North 11.5 mph - N/A   Clear
2:15 PM 68.7 °F 48.2 °F 48% 30.05 in 10.0 mi NNW 9.2 mph - N/A   Clear
2:35 PM 68.5 °F 48.7 °F 49% 30.04 in 10.0 mi NNW 10.4 mph - N/A   Clear
2:55 PM 68.5 °F 48.9 °F 49% 30.04 in 10.0 mi North 12.7 mph 16.1 mph N/A   Clear
3:15 PM 69.3 °F 49.6 °F 50% 30.04 in 10.0 mi NNW 11.5 mph - N/A   Clear
3:35 PM 68.9 °F 49.5 °F 50% 30.04 in 10.0 mi NNW 10.4 mph - N/A   Clear
3:55 PM 68.9 °F 50.0 °F 51% 30.04 in 10.0 mi NNW 11.5 mph - N/A   Clear
4:15 PM 68.9 °F 50.0 °F 51% 30.04 in 10.0 mi North 10.4 mph - N/A   Clear
4:35 PM 68.9 °F 50.4 °F 52% 30.03 in 10.0 mi North 10.4 mph - N/A   Clear
4:55 PM 68.2 °F 50.5 °F 53% 30.03 in 10.0 mi NNW 9.2 mph - N/A   Clear
5:15 PM 68.0 °F 50.7 °F 54% 30.04 in 10.0 mi North 10.4 mph - N/A   Clear
5:35 PM 67.3 °F 50.7 °F 55% 30.04 in 10.0 mi North 9.2 mph - N/A   Clear
5:55 PM 66.9 °F 50.5 °F 56% 30.04 in 10.0 mi NNW 12.7 mph - N/A   Clear
6:15 PM 66.4 °F 50.2 °F 56% 30.04 in 10.0 mi North 11.5 mph - N/A   Clear
6:35 PM 65.7 °F 50.4 °F 58% 30.04 in 10.0 mi NNW 10.4 mph - N/A   Clear
6:55 PM 65.3 °F 50.0 °F 58% 30.04 in 10.0 mi NNW 11.5 mph - N/A   Clear
7:15 PM 64.4 °F 50.2 °F 60% 30.05 in 10.0 mi North 8.1 mph - N/A   Clear
7:35 PM 63.5 °F 50.0 °F 61% 30.05 in 10.0 mi North 5.8 mph - N/A   Clear
7:55 PM 62.4 °F 50.4 °F 65% 30.06 in 10.0 mi North 9.2 mph - N/A   Clear
8:15 PM 61.2 °F 50.9 °F 69% 30.07 in 10.0 mi North 3.5 mph - N/A   Clear
8:35 PM 60.1 °F 51.1 °F 72% 30.06 in 10.0 mi NNW 5.8 mph - N/A   Clear
8:55 PM 59.9 °F 51.3 °F 73% 30.07 in 10.0 mi North 4.6 mph - N/A   Scattered Clouds
9:15 PM 59.2 °F 51.8 °F 77% 30.07 in 10.0 mi North 4.6 mph - N/A   Scattered Clouds
9:35 PM 58.3 °F 52.5 °F 81% 30.07 in 10.0 mi NNE 5.8 mph - N/A   Scattered Clouds
9:55 PM 59.0 °F 53.2 °F 81% 30.07 in 10.0 mi NNE 6.9 mph - N/A   Clear
10:15 PM 58.6 °F 53.1 °F 82% 30.07 in 10.0 mi NNE 5.8 mph - N/A   Clear
10:35 PM 58.1 °F 52.9 °F 83% 30.06 in 10.0 mi NNE 5.8 mph - N/A   Scattered Clouds
10:55 PM 58.1 °F 52.7 °F 82% 30.06 in 10.0 mi Calm Calm - N/A   Scattered Clouds
11:15 PM 56.3 °F 52.7 °F 88% 30.06 in 10.0 mi NE 3.5 mph - N/A   Scattered Clouds
11:35 PM 56.7 °F 52.3 °F 85% 30.07 in 10.0 mi Calm Calm - N/A   Clear
11:55 PM 54.0 °F 51.4 °F 91% 30.07 in 10.0 mi Calm Calm - N/A   Clear